DW3396 Weather Reports


time (UTC)temp
F
wind
direction
speed
knots
gust
knots
rain 1hr
in
rain 24hr
in
rain mn
in
humidity
%
barometer
mb
20260504050007 58 182 0.0 0.0 0.00 0.00 0.00 56 1006.1
20260504044505 58 171 0.0 0.0 0.00 0.00 0.00 56 1006.2
20260504043008 59 196 0.0 0.0 0.00 0.00 0.00 56 1006.3
20260504041503 59 196 0.0 0.0 0.00 0.00 0.00 57 1006.3
20260504040007 59 196 0.0 0.0 0.00 0.00 0.00 57 1006.3
20260504034506 60 200 0.0 0.0 0.00 0.00 0.00 56 1006.3
20260504033002 60 270 0.0 3.5 0.00 0.00 0.00 55 1006.4
20260504031501 61 216 0.0 0.9 0.00 0.00 0.00 54 1006.4
20260504030115 62 184 0.0 0.9 0.00 0.00 0.00 53 1006.4
20260504024559 63 184 0.0 2.6 0.00 0.00 0.00 52 1006.3
20260504023059 63 185 0.0 2.6 0.00 0.00 0.00 52 1006.1
20260504021607 64 184 0.0 1.7 0.00 0.00 0.00 48 1006.0
20260504020058 64 181 0.0 0.0 0.00 0.00 0.00 45 1005.9
20260504014558 65 178 0.0 0.0 0.00 0.00 0.00 44 1005.8
20260504013058 66 178 0.0 0.9 0.00 0.00 0.00 44 1005.6
20260504011557 67 257 0.0 0.0 0.00 0.00 0.00 45 1005.5
20260504010056 68 257 0.0 0.0 0.00 0.00 0.00 44 1005.4
20260504004556 69 271 0.0 3.5 0.00 0.00 0.00 45 1005.4
20260504003055 70 193 0.0 3.5 0.00 0.00 0.00 44 1005.3
20260504001554 71 184 0.9 3.5 0.00 0.00 0.00 44 1005.2
20260504000131 72 270 0.9 3.5 0.00 0.00 0.00 43 1005.2
20260503234552 71 190 0.9 3.5 0.00 0.00 0.00 44 1005.1
20260503233051 72 186 2.6 6.1 0.00 0.00 0.00 44 1005.2
20260503231549 71 135 0.9 7.0 0.00 0.00 0.00 46 1005.4
20260503230053 71 161 1.7 6.1 0.00 0.00 0.00 44 1005.5
20260503224547 71 178 0.9 8.7 0.00 0.00 0.00 45 1005.5
20260503223046 72 171 0.9 7.0 0.00 0.00 0.00 44 1005.6
20260503221543 72 136 1.7 6.1 0.00 0.00 0.00 44 1005.6
20260503220044 73 219 2.6 7.8 0.00 0.00 0.00 43 1005.7
20260503214541 73 188 1.7 7.0 0.00 0.00 0.00 42 1005.8
20260503213040 73 205 1.7 7.8 0.00 0.00 0.00 41 1005.7
20260503211538 72 181 2.6 7.0 0.00 0.00 0.00 41 1005.8
20260503210036 72 259 1.7 7.0 0.00 0.00 0.00 42 1006.1
20260503204534 72 190 2.6 7.0 0.00 0.00 0.00 41 1006.4
20260503203131 72 197 2.6 7.8 0.00 0.00 0.00 41 1006.5
20260503201528 71 211 1.7 8.7 0.00 0.00 0.00 43 1006.6
20260503200026 71 220 1.7 7.0 0.00 0.00 0.00 43 1006.7
20260503194523 70 269 1.7 9.6 0.00 0.00 0.00 44 1007.0
20260503193021 70 187 0.9 8.7 0.00 0.00 0.00 45 1007.2
20260503191518 69 196 3.5 8.7 0.00 0.00 0.00 45 1007.4
20260503190015 69 266 0.9 6.1 0.00 0.00 0.00 46 1007.5
20260503184517 68 181 3.5 7.0 0.00 0.00 0.00 46 1007.6
20260503183011 68 111 2.6 6.1 0.00 0.00 0.00 47 1007.7
20260503181507 67 194 0.9 9.6 0.00 0.00 0.00 47 1008.1
20260503180004 66 182 2.6 8.7 0.00 0.00 0.00 48 1008.1
20260503174504 65 182 2.6 10.4 0.00 0.00 0.00 47 1008.6
20260503173100 65 191 1.7 9.6 0.00 0.00 0.00 47 1008.9
20260503171612 64 229 1.7 12.2 0.00 0.00 0.00 49 1009.1
20260503170103 63 193 2.6 15.6 0.00 0.00 0.00 49 1009.2
20260503081540 49 195 2.6 3.5 0.00 0.00 0.00 60 1014.8
20260503071552 49 176 0.9 4.3 0.00 0.00 0.00 58 1014.9